Location: Newark
(1.4692°S, 78.8175°W)
Time: 07:28:31
(UTC+00:00)

N. Korean satellite - Visible Passes

Search period start: 25 March 2019 00:00
Search period end: 04 April 2019 00:00
Orbit: 456 x 510 km, 97.2° (Epoch: 24 March)

Date Brightness Start Highest point End Pass type
(mag) Time Alt. Az. Time Alt. Az. Time Alt. Az.
27 Mar 8.5 10:38:58 10° NE 10:42:20 35° ESE 10:45:45 10° SSE visible
28 Mar 9.9 10:15:33 10° ENE 10:17:36 14° ESE 10:19:40 10° SE visible
31 Mar 9.0 10:33:14 10° NE 10:36:28 28° ESE 10:39:42 10° SSE visible
31 Mar 10.1 23:55:22 10° WSW 23:56:36 12° WSW 23:57:51 10° W visible
01 Apr 10.1 10:10:19 10° E 10:11:44 12° ESE 10:13:07 10° SE visible
03 Apr 7.3 10:51:39 10° NNE 10:55:18 61° E 10:59:00 10° S visible
